Skip Page Navigation
NASA JPL Caltech
NASA Logo - Jet Propulsion Laboratory + View the NASA Portal
+ Center for Near-Earth Object Studies
JPL Home Earth Solar System Stars & Galaxies Technology
JPL Solar System Dynamics
BODIES ORBITS EPHEMERIDES TOOLS PHYSICAL DATA DISCOVERY FAQ SITE MAP
IMPORTANT: The SSD Announcement email list is now available. Major changes are coming in the near future, including possible hostname and/or URL changes. To be notified of such changes, subscribe to this email list.

Please visit this page for more details.


JPL Small-Body Database Browser
Search: [ help ]  
48735 (1997 CX19)
Classification: Main-belt Asteroid          SPK-ID: 2048735
Ephemeris | Orbit Diagram | Orbital Elements | Mission Design | Physical Parameters | Discovery Circumstances | Close-Approach Data ]

[ show orbit diagram ]
Orbital Elements at Epoch 2458600.5 (2019-Apr-27.0) TDB
Reference: JPL 22 (heliocentric ecliptic J2000)
 Element Value Uncertainty (1-sigma)   Units 
e .1358656469233831 5.4326e-08  
a 2.301287543387119 9.1648e-09 au
q 1.988621622548105 1.2281e-07 au
i 4.725777909624503 5.4892e-06 deg
node .01857146326054539 4.3385e-05 deg
peri 156.985182382475 4.5534e-05 deg
M 127.6824446135941 1.3647e-05 deg
tp 2458148.244928933446
(2018-Jan-29.74492893)
4.7465e-05 TDB
period 1275.130861385662
3.49
7.6172e-06
2.085e-08
d
yr
n .2823239644665132 1.6865e-09 deg/d
Q 2.613953464226133 1.041e-08 au
  Orbit Determination Parameters
   # obs. used (total)      817  
   data-arc span      21599 days (59.13 yr)  
   first obs. used      1960-10-17  
   last obs. used      2019-12-06  
   planetary ephem.      DE431  
   SB-pert. ephem.      SB431-N16  
   condition code      0  
   norm. resid. RMS      .55675  
   source      ORB  
   producer      Otto Matic  
   solution date      2019-Dec-14 04:14:12  

Additional Information
 Earth MOID = .999192 au 
 Jupiter MOID = 2.37015 au 
 T_jup = 3.574 
[ show covariance matrix ]

Ephemeris | Orbit Diagram | Orbital Elements | Mission Design | Physical Parameters | Discovery Circumstances | Close-Approach Data ]

Physical Parameter Table
Parameter Symbol Value Units Sigma Reference Notes
absolute magnitude H 15.4   n/a MPO296496  

48735 (1997 CX19)          Discovered 1997-Feb-12 by Kobayashi, T. at Oizumi
Reference: 20021120/Numbers.arcLast Updated: 2004-04-19

[ show close-approach data ]
Alternate Designations
 1997 CX19 = 1990 EB7 
Ephemeris | Orbit Diagram | Orbital Elements | Mission Design | Physical Parameters | Discovery Circumstances | Close-Approach Data ]
ABOUT SSD CREDITS/AWARDS PRIVACY/COPYRIGHT GLOSSARY LINKS
FirstGov 2020-Jan-19 22:08 UT
(server date/time)  
NASA Home Page
Site Manager:   Ryan S. Park
Webmaster  Alan B. Chamberlin